Regional Weather Roundup
Issued by NWS

Home | Current Version | Previous Version | Graphics & Text | Print | Product List | Glossary Off
Versions: 1 2 3 4 5 6 7 8 9 10 11 12 13 14 15 16 17 18 19 20 21 22 23 24 25 26 27 28 29 30 31 32 33 34 35 36 37 38 39 40 41 42 43 44 45 46 47 48 49 50

000
ASUS43 KMKX 291521
RWRWI

WISCONSIN REGIONAL WEATHER ROUNDUP
NATIONAL WEATHER SERVICE MILWAUKEE/SULLIVAN WI
1000 AM CDT FRI AUG 29 2014

NOTE: "FAIR" INDICATES FEW OR NO CLOUDS BELOW 12,000 FEET WITH NO
SIGNIFICANT WEATHER AND/OR OBSTRUCTIONS TO VISIBILITY.

WIZ001-002-006>008-014>016-023>028-291600-
NORTHWEST WISCONSIN

CITY           SKY/WX    TMP DP  RH WIND       PRES   REMARKS
SUPERIOR ARPT  RAIN      62  61  97 E3        29.80F
ASHLAND        RAIN      60  59  96 S6        29.86R FOG
HAYWARD        LGT RAIN  60  60 100 SE6       29.87S FOG
SIREN          CLOUDY    62  61  97 SE8       29.83R FOG
RICE LAKE      FOG       62  61  95 SE7       29.86F VSB 1
LADYSMITH      FOG       63  62  96 SE6       29.89F VSB 3/4
EAU CLAIRE     CLOUDY    66  65  96 S8        29.85R
MENOMONIE      CLOUDY    65  65  99 SE7       29.86R FOG
NEW RICHMOND   CLOUDY    71  68  91 S8        29.82S
OSCEOLA        CLOUDY    71  70  97 S7        29.84R
$$

WIZ003>005-009-010-017-018-291600-
NORTH CENTRAL WISCONSIN

CITY           SKY/WX    TMP DP  RH WIND       PRES   REMARKS
WOODRUFF       CLOUDY    62  60  94 S7        29.92R
RHINELANDER    CLOUDY    60  59  96 S7        29.93R
EAGLE RIVER    CLOUDY    60  60 100 S6        29.91R
LAND O LAKES   CLOUDY    60  59  97 S6        29.93R
PHILLIPS       CLOUDY    60  60  99 S5        29.90R
TOMAHAWK       RAIN      59  58  96 SE3       29.92R
MEDFORD        FOG       62  62 100 SE6       29.90S VSB 1/4
MERRILL        CLOUDY    61  61 100 SE7       29.91R FOG
$$

WIZ029-030-035-036-043>047-291600-
CENTRAL WISCONSIN

CITY           SKY/WX    TMP DP  RH WIND       PRES   REMARKS
WAUSAU         LGT RAIN  62  62 100 SE6       29.91R FOG
MOSINEE        FOG       63  63 100 S6        29.92R VSB 1/2
MARSHFIELD     CLOUDY    65  64  97 S7        29.90R FOG
STEVENS POINT  CLOUDY    64  62  94 S5        29.92R FOG
WAUPACA        CLOUDY    69  67  94 SE6       29.92F FOG
WAUTOMA        CLOUDY    68  66  93 S6        29.92F FOG
WISC RAPIDS    CLOUDY    67  64  90 S7        29.92R
CAMP DOUGLAS   CLOUDY    70  70 100 VRB5      29.88F
$$

WIZ011>013-019>022-031-037>040-048>050-291600-
NORTHEAST WISCONSIN

CITY           SKY/WX    TMP DP  RH WIND       PRES   REMARKS
ANTIGO         FOG       59  59 100 SE7       29.93S VSB 1/4
STURGEON BAY   CLOUDY    66  63  88 S16G22    29.94F
GREEN BAY      CLOUDY    70  68  93 S8        29.94F
MANITOWOC      CLOUDY    71  68  90 S17       29.95F
APPLETON       PTSUNNY   70  66  88 S7        29.94F FOG
CLINTONVILLE   CLOUDY    68  64  88 S8        29.91F
OSHKOSH        CLOUDY    73  68  84 S12       29.93S
$$

WIZ032>034-041-042-053>061-291600-
SOUTHWEST WISCONSIN

CITY           SKY/WX    TMP DP  RH WIND       PRES   REMARKS
LA CROSSE      CLOUDY    73  68  84 S13       29.84F
SPARTA         CLOUDY    72  66  83 S9        29.87F
VIROQUA        CLOUDY    70  70 100 S9        29.89S
BOSCOBEL       CLOUDY    75  68  78 S9        29.89S
PRAIRIE DU CHI CLOUDY    74  67  80 S3        29.87S
PLATTEVILLE    CLOUDY    73  70  88 S12G18    29.92S
$$

WIZ056-057-062-063-064-067-068-291600-
SOUTH CENTRAL WISCONSIN

CITY           SKY/WX    TMP DP  RH WIND       PRES   REMARKS
BARABOO/DELLS  CLOUDY    72  66  82 S10       29.91S
LONE ROCK      CLOUDY    78  68  71 S8        29.90F HX  80
WATERTOWN      MOSUNNY   76  70  81 S9        29.94F
MADISON        MOSUNNY   76  68  76 S13       29.92F
MIDDLETON      CLOUDY    74  69  84 SW12      29.93S
MONROE         MOSUNNY   73  70  88 S14       29.93S
JANESVILLE     MOSUNNY   77  70  78 S12       29.94F
$$

WIZ051-052-058>065-066-070>072-291600-
SOUTHEAST WISCONSIN

CITY           SKY/WX    TMP DP  RH WIND       PRES   REMARKS
MILWAUKEE      LGT RAIN  71  67  87 S12       29.97S
WAUKESHA       MOSUNNY   70  66  88 S8        29.98S
MILWAUKEE/TIMM PTSUNNY   72  64  78 S7        29.97S
RACINE         LGT RAIN  71  68  90 S10       29.99F
BURLINGTON     CLOUDY    73  70  90 S6        29.97R
KENOSHA        CLOUDY    70  68  93 S10       29.99F
FOND DU LAC    MOSUNNY   74  67  78 S12       29.93F
SHEBOYGAN      PTSUNNY   73  68  84 S9        29.95F
WEST BEND      MOSUNNY   73  64  73 S10G16    29.96S
JUNEAU         MOSUNNY   74  68  80 S12       29.95S
$$

LSZ147-162-291600-
LAKE SUPERIOR

STATION/POSITION TIME  TEMP    WIND        PRES    WAVE
                       AIR SEA DIR/SP/G            HT/PER
                 (UTC) (F)     (DEG/KT/KT) (MB)    (FT/S)
W MID LAKE BUOY  1450   59 57  120/ 10/ 10 1011.1F   1/ 3
DEVILS ISLAND    1500   60     110/  7/  9 1010.1F
PORT WING        1400   61        CALM     1009.8
SAXON HARBOR     1440   63      CALM  /  2 1010.8S
$$

LMZ867-665-643>646-291600-
LAKE MICHIGAN

STATION/POSITION TIME  TEMP    WIND        PRES    WAVE
                       AIR SEA DIR/SP/G            HT/PER
                 (UTC) (F)     (DEG/KT/KT) (MB)    (FT/S)
N MID LAKE BUOY  1450   63 65  150/ 16/ 19 1015.1F
NORTHPORT PIER   1400   63     140/ 15/ 19 1014.9F
SISTER BAY       1411   62     140/ 11/ 15   N/A
KEWAUNEE LAKESHO 1500   66     170/ 12/ 14 1013.6F
SHEBOYGAN LAKESH 1500   68 69  170/ 13/ 15 1014.4F
ATWATER BUOY     1500   70     160/ 10/ 14 1015.7
MILWAUKEE LAKESH 1500   71     180/  8/ 10   N/A
S MID LAKE BUOY  1450   69 69  160/ 16/ 19 1015.6R   4/ 5
KENOSHA   LAKESH 1500   70     140/ 21/ 23 1014.6F
$$

TC  - TEMPERATURE IN CELSIUS
VSB - VISIBILITY IN STATUTE MILES
WCI - WIND CHILL INDEX
HX  - HEAT INDEX



USA.gov is the U.S. government's official web portal to all federal, state and local government web resources and services.